M I D A S
Marine Information and Data Acquisition System
Tripno 1296 of the Zeeleeuw from 2007-06-20 06:34:19 to 2007-06-20 14:37:03
Back to CruiseResearch ActivitiesStationsMapUnderway DataData graphs

EquipmentUnitsComment
TimeDGPSUTC
LatitudeDGPSDM.mWGS84
LongitudeDGPSDM.mWGS84
TemperatureSBE03/SBE38deg celciusITS90
ConductivitySBE21S/mITS90
SalinitySBE21 Practical Salinity Units
ChlorophylAChelsea fluorimeterg/lCalibrated in Aceton
Missing or incorrect values are displayed as -999
Sea surface data collected by the RV Zeeleeuw from 2007-06-20 06:36:08 to 2007-06-20 14:48:29
                                                                                    Next 1000 lines
Time Latitude Longitude Temperature Conductivity Salinity ChlorophylA
2007-06-20 06:36:18 51°13.598 2°56.093 -999 -999 -999 -999
2007-06-20 06:36:23 51°13.599 2°56.091 -999 -999 -999 -999
2007-06-20 06:36:28 51°13.6 2°56.087 -999 -999 -999 -999
2007-06-20 06:36:33 51°13.602 2°56.083 -999 -999 -999 -999
2007-06-20 06:36:38 51°13.603 2°56.078 -999 -999 -999 -999
2007-06-20 06:36:43 51°13.605 2°56.073 -999 -999 -999 -999
2007-06-20 06:36:48 51°13.606 2°56.066 -999 -999 -999 -999
2007-06-20 06:36:53 51°13.608 2°56.06 -999 -999 -999 -999
2007-06-20 06:36:58 51°13.611 2°56.052 -999 -999 -999 -999
2007-06-20 06:37:03 51°13.613 2°56.045 -999 -999 -999 -999
2007-06-20 06:37:08 51°13.616 2°56.037 -999 -999 -999 -999
2007-06-20 06:37:13 51°13.619 2°56.028 -999 -999 -999 -999
2007-06-20 06:37:18 51°13.621 2°56.019 -999 -999 -999 -999
2007-06-20 06:37:23 51°13.624 2°56.01 -999 -999 -999 -999
2007-06-20 06:37:28 51°13.628 2°56.001 -999 -999 -999 -999
2007-06-20 06:37:33 51°13.631 2°55.991 -999 -999 -999 -999
2007-06-20 06:37:38 51°13.634 2°55.981 -999 -999 -999 -999
2007-06-20 06:37:43 51°13.638 2°55.972 -999 -999 -999 -999
2007-06-20 06:37:48 51°13.642 2°55.962 -999 -999 -999 -999
2007-06-20 06:37:53 51°13.645 2°55.952 -999 -999 -999 -999
2007-06-20 06:37:58 51°13.649 2°55.942 -999 -999 -999 -999
2007-06-20 06:38:03 51°13.653 2°55.933 -999 -999 -999 -999
2007-06-20 06:38:08 51°13.656 2°55.924 -999 -999 -999 -999
2007-06-20 06:38:13 51°13.659 2°55.915 -999 -999 -999 -999
2007-06-20 06:38:18 51°13.662 2°55.907 -999 -999 -999 -999
2007-06-20 06:38:23 51°13.665 2°55.899 -999 -999 -999 -999
2007-06-20 06:38:28 51°13.668 2°55.891 -999 -999 -999 -999
2007-06-20 06:38:33 51°13.67 2°55.883 -999 -999 -999 -999
2007-06-20 06:38:38 51°13.673 2°55.875 -999 -999 -999 -999
2007-06-20 06:38:43 51°13.675 2°55.867 -999 -999 -999 -999
2007-06-20 06:38:48 51°13.677 2°55.86 -999 -999 -999 -999
2007-06-20 06:38:53 51°13.679 2°55.853 -999 -999 -999 -999
2007-06-20 06:38:58 51°13.682 2°55.846 -999 -999 -999 -999
2007-06-20 06:39:03 51°13.683 2°55.839 -999 -999 -999 -999
2007-06-20 06:39:08 51°13.685 2°55.832 -999 -999 -999 -999
2007-06-20 06:39:13 51°13.686 2°55.826 -999 -999 -999 -999
2007-06-20 06:39:18 51°13.688 2°55.819 -999 -999 -999 -999
2007-06-20 06:39:23 51°13.689 2°55.812 -999 -999 -999 -999
2007-06-20 06:39:28 51°13.689 2°55.806 -999 -999 -999 -999
2007-06-20 06:39:33 51°13.69 2°55.799 -999 -999 -999 -999
2007-06-20 06:39:38 51°13.691 2°55.793 -999 -999 -999 -999
2007-06-20 06:39:43 51°13.691 2°55.786 -999 -999 -999 -999
2007-06-20 06:39:48 51°13.692 2°55.78 -999 -999 -999 -999
2007-06-20 06:39:53 51°13.692 2°55.773 -999 -999 -999 -999
2007-06-20 06:39:58 51°13.692 2°55.767 -999 -999 -999 -999
2007-06-20 06:40:03 51°13.692 2°55.761 -999 -999 -999 -999
2007-06-20 06:40:08 51°13.692 2°55.755 -999 -999 -999 -999
2007-06-20 06:40:13 51°13.692 2°55.75 -999 -999 -999 -999
2007-06-20 06:40:18 51°13.692 2°55.745 -999 -999 -999 -999
2007-06-20 06:40:23 51°13.692 2°55.74 -999 -999 -999 -999
2007-06-20 06:40:28 51°13.692 2°55.735 -999 -999 -999 -999
2007-06-20 06:40:33 51°13.692 2°55.731 -999 -999 -999 -999
2007-06-20 06:40:38 51°13.692 2°55.727 -999 -999 -999 -999
2007-06-20 06:40:43 51°13.691 2°55.723 -999 -999 -999 -999
2007-06-20 06:40:48 51°13.691 2°55.72 -999 -999 -999 -999
2007-06-20 06:40:53 51°13.691 2°55.718 -999 -999 -999 -999
2007-06-20 06:40:58 51°13.69 2°55.715 -999 -999 -999 -999
2007-06-20 06:41:03 51°13.69 2°55.713 -999 -999 -999 -999
2007-06-20 06:41:08 51°13.69 2°55.712 -999 -999 -999 -999
2007-06-20 06:41:13 51°13.69 2°55.711 -999 -999 -999 -999
2007-06-20 06:41:18 51°13.69 2°55.71 -999 -999 -999 -999
2007-06-20 06:41:23 51°13.691 2°55.71 -999 -999 -999 -999
2007-06-20 06:41:28 51°13.692 2°55.71 -999 -999 -999 -999
2007-06-20 06:41:33 51°13.693 2°55.711 -999 -999 -999 -999
2007-06-20 06:41:38 51°13.695 2°55.711 -999 -999 -999 -999
2007-06-20 06:41:43 51°13.697 2°55.711 -999 -999 -999 -999
2007-06-20 06:41:48 51°13.699 2°55.711 -999 -999 -999 -999
2007-06-20 06:41:53 51°13.702 2°55.711 -999 -999 -999 -999
2007-06-20 06:41:58 51°13.706 2°55.71 -999 -999 -999 -999
2007-06-20 06:42:03 51°13.709 2°55.709 -999 -999 -999 -999
2007-06-20 06:42:08 51°13.713 2°55.708 -999 -999 -999 -999
2007-06-20 06:42:13 51°13.718 2°55.706 -999 -999 -999 -999
2007-06-20 06:42:18 51°13.723 2°55.703 -999 -999 -999 -999
2007-06-20 06:42:23 51°13.729 2°55.7 -999 -999 -999 -999
2007-06-20 06:42:28 51°13.735 2°55.697 -999 -999 -999 -999
2007-06-20 06:42:33 51°13.742 2°55.693 -999 -999 -999 -999
2007-06-20 06:42:38 51°13.749 2°55.688 -999 -999 -999 -999
2007-06-20 06:42:43 51°13.755 2°55.683 -999 -999 -999 -999
2007-06-20 06:42:48 51°13.763 2°55.678 -999 -999 -999 -999
2007-06-20 06:42:53 51°13.77 2°55.672 -999 -999 -999 -999
2007-06-20 06:42:58 51°13.778 2°55.667 -999 -999 -999 -999
2007-06-20 06:43:03 51°13.786 2°55.661 -999 -999 -999 -999
2007-06-20 06:43:08 51°13.794 2°55.655 -999 -999 -999 -999
2007-06-20 06:43:13 51°13.802 2°55.649 -999 -999 -999 -999
2007-06-20 06:43:18 51°13.811 2°55.643 -999 -999 -999 -999
2007-06-20 06:43:23 51°13.82 2°55.638 -999 -999 -999 -999
2007-06-20 06:43:28 51°13.829 2°55.632 -999 -999 -999 -999
2007-06-20 06:43:33 51°13.838 2°55.626 -999 -999 -999 -999
2007-06-20 06:43:38 51°13.847 2°55.62 -999 -999 -999 -999
2007-06-20 06:43:43 51°13.856 2°55.614 -999 -999 -999 -999
2007-06-20 06:43:48 51°13.865 2°55.608 -999 -999 -999 -999
2007-06-20 06:43:53 51°13.874 2°55.602 -999 -999 -999 -999
2007-06-20 06:43:58 51°13.884 2°55.596 -999 -999 -999 -999
2007-06-20 06:44:03 51°13.893 2°55.59 -999 -999 -999 -999
2007-06-20 06:44:08 51°13.903 2°55.583 -999 -999 -999 -999
2007-06-20 06:44:13 51°13.912 2°55.577 -999 -999 -999 -999
2007-06-20 06:44:18 51°13.922 2°55.571 -999 -999 -999 -999
2007-06-20 06:44:23 51°13.932 2°55.564 -999 -999 -999 -999
2007-06-20 06:44:28 51°13.941 2°55.558 -999 -999 -999 -999
2007-06-20 06:44:33 51°13.951 2°55.551 -999 -999 -999 -999
2007-06-20 06:44:38 51°13.96 2°55.545 -999 -999 -999 -999
2007-06-20 06:44:43 51°13.97 2°55.539 -999 -999 -999 -999
2007-06-20 06:44:48 51°13.98 2°55.533 -999 -999 -999 -999
2007-06-20 06:44:53 51°13.989 2°55.527 -999 -999 -999 -999
2007-06-20 06:44:58 51°13.998 2°55.521 -999 -999 -999 -999
2007-06-20 06:45:03 51°14.007 2°55.515 -999 -999 -999 -999
2007-06-20 06:45:08 51°14.016 2°55.509 -999 -999 -999 -999
2007-06-20 06:45:13 51°14.025 2°55.503 -999 -999 -999 -999
2007-06-20 06:45:18 51°14.033 2°55.497 -999 -999 -999 -999
2007-06-20 06:45:23 51°14.042 2°55.491 -999 -999 -999 -999
2007-06-20 06:45:28 51°14.05 2°55.485 -999 -999 -999 -999
2007-06-20 06:45:33 51°14.058 2°55.479 -999 -999 -999 -999
2007-06-20 06:45:38 51°14.066 2°55.473 -999 -999 -999 -999
2007-06-20 06:45:43 51°14.074 2°55.467 -999 -999 -999 -999
2007-06-20 06:45:48 51°14.082 2°55.461 -999 -999 -999 -999
2007-06-20 06:45:53 51°14.09 2°55.455 -999 -999 -999 -999
2007-06-20 06:45:58 51°14.097 2°55.449 -999 -999 -999 -999
2007-06-20 06:46:03 51°14.105 2°55.443 -999 -999 -999 -999
2007-06-20 06:46:08 51°14.112 2°55.437 -999 -999 -999 -999
2007-06-20 06:46:13 51°14.12 2°55.431 -999 -999 -999 -999
2007-06-20 06:46:18 51°14.127 2°55.425 -999 -999 -999 -999
2007-06-20 06:46:23 51°14.135 2°55.418 -999 -999 -999 -999
2007-06-20 06:46:28 51°14.143 2°55.411 -999 -999 -999 -999
2007-06-20 06:46:33 51°14.152 2°55.404 -999 -999 -999 -999
2007-06-20 06:46:38 51°14.16 2°55.396 -999 -999 -999 -999
2007-06-20 06:46:43 51°14.169 2°55.388 -999 -999 -999 -999
2007-06-20 06:46:48 51°14.178 2°55.379 -999 -999 -999 -999
2007-06-20 06:46:53 51°14.187 2°55.369 -999 -999 -999 -999
2007-06-20 06:46:58 51°14.196 2°55.359 -999 -999 -999 -999
2007-06-20 06:47:03 51°14.205 2°55.348 -999 -999 -999 -999
2007-06-20 06:47:08 51°14.214 2°55.337 -999 -999 -999 -999
2007-06-20 06:47:13 51°14.223 2°55.325 -999 -999 -999 -999
2007-06-20 06:47:18 51°14.232 2°55.313 -999 -999 -999 -999
2007-06-20 06:47:23 51°14.241 2°55.299 -999 -999 -999 -999
2007-06-20 06:47:28 51°14.25 2°55.285 -999 -999 -999 -999
2007-06-20 06:47:33 51°14.259 2°55.269 -999 -999 -999 -999
2007-06-20 06:47:38 51°14.268 2°55.253 -999 -999 -999 -999
2007-06-20 06:47:43 51°14.277 2°55.237 -999 -999 -999 -999
2007-06-20 06:47:48 51°14.286 2°55.22 -999 -999 -999 -999
2007-06-20 06:47:53 51°14.295 2°55.203 -999 -999 -999 -999
2007-06-20 06:47:58 51°14.305 2°55.185 -999 -999 -999 -999
2007-06-20 06:48:03 51°14.314 2°55.166 -999 -999 -999 -999
2007-06-20 06:48:08 51°14.323 2°55.147 -999 -999 -999 -999
2007-06-20 06:48:13 51°14.333 2°55.128 -999 -999 -999 -999
2007-06-20 06:48:18 51°14.343 2°55.108 -999 -999 -999 -999
2007-06-20 06:48:23 51°14.353 2°55.088 -999 -999 -999 -999
2007-06-20 06:48:28 51°14.363 2°55.068 -999 -999 -999 -999
2007-06-20 06:48:33 51°14.373 2°55.046 -999 -999 -999 -999
2007-06-20 06:48:38 51°14.383 2°55.024 -999 -999 -999 -999
2007-06-20 06:48:43 51°14.393 2°55.001 -999 -999 -999 -999
2007-06-20 06:48:48 51°14.402 2°54.976 -999 -999 -999 -999
2007-06-20 06:48:53 51°14.411 2°54.951 -999 -999 -999 -999
2007-06-20 06:48:58 51°14.42 2°54.926 -999 -999 -999 -999
2007-06-20 06:49:03 51°14.427 2°54.899 -999 -999 -999 -999
2007-06-20 06:49:08 51°14.433 2°54.872 -999 -999 -999 -999
2007-06-20 06:49:13 51°14.438 2°54.844 -999 -999 -999 -999
2007-06-20 06:49:18 51°14.442 2°54.816 -999 -999 -999 -999
2007-06-20 06:49:23 51°14.445 2°54.788 -999 -999 -999 -999
2007-06-20 06:49:28 51°14.447 2°54.759 -999 -999 -999 -999
2007-06-20 06:49:33 51°14.447 2°54.731 -999 -999 -999 -999
2007-06-20 06:49:38 51°14.446 2°54.702 -999 -999 -999 -999
2007-06-20 06:49:43 51°14.444 2°54.674 -999 -999 -999 -999
2007-06-20 06:49:48 51°14.442 2°54.645 -999 -999 -999 -999
2007-06-20 06:49:53 51°14.439 2°54.618 -999 -999 -999 -999
2007-06-20 06:49:58 51°14.435 2°54.59 -999 -999 -999 -999
2007-06-20 06:50:03 51°14.429 2°54.564 -999 -999 -999 -999
2007-06-20 06:50:08 51°14.423 2°54.537 -999 -999 -999 -999
2007-06-20 06:50:13 51°14.416 2°54.512 -999 -999 -999 -999
2007-06-20 06:50:18 51°14.409 2°54.486 -999 -999 -999 -999
2007-06-20 06:50:23 51°14.402 2°54.461 -999 -999 -999 -999
2007-06-20 06:50:28 51°14.394 2°54.437 -999 -999 -999 -999
2007-06-20 06:50:33 51°14.386 2°54.413 -999 -999 -999 -999
2007-06-20 06:50:38 51°14.378 2°54.389 -999 -999 -999 -999
2007-06-20 06:50:43 51°14.37 2°54.364 -999 -999 -999 -999
2007-06-20 06:50:48 51°14.362 2°54.34 -999 -999 -999 -999
2007-06-20 06:50:53 51°14.354 2°54.315 -999 -999 -999 -999
2007-06-20 06:50:58 51°14.346 2°54.291 -999 -999 -999 -999
2007-06-20 06:51:03 51°14.339 2°54.266 -999 -999 -999 -999
2007-06-20 06:51:08 51°14.331 2°54.241 -999 -999 -999 -999
2007-06-20 06:51:13 51°14.323 2°54.216 -999 -999 -999 -999
2007-06-20 06:51:18 51°14.316 2°54.192 -999 -999 -999 -999
2007-06-20 06:51:23 51°14.308 2°54.167 -999 -999 -999 -999
2007-06-20 06:51:28 51°14.3 2°54.142 -999 -999 -999 -999
2007-06-20 06:51:33 51°14.292 2°54.117 -999 -999 -999 -999
2007-06-20 06:51:38 51°14.283 2°54.093 -999 -999 -999 -999
2007-06-20 06:51:43 51°14.275 2°54.068 -999 -999 -999 -999
2007-06-20 06:51:48 51°14.266 2°54.044 -999 -999 -999 -999
2007-06-20 06:51:53 51°14.258 2°54.019 -999 -999 -999 -999
2007-06-20 06:51:58 51°14.25 2°53.995 -999 -999 -999 -999
2007-06-20 06:52:03 51°14.241 2°53.97 -999 -999 -999 -999
2007-06-20 06:52:08 51°14.233 2°53.946 -999 -999 -999 -999
2007-06-20 06:52:13 51°14.225 2°53.921 -999 -999 -999 -999
2007-06-20 06:52:18 51°14.217 2°53.896 -999 -999 -999 -999
2007-06-20 06:52:23 51°14.209 2°53.871 -999 -999 -999 -999
2007-06-20 06:52:28 51°14.2 2°53.847 -999 -999 -999 -999
2007-06-20 06:52:33 51°14.193 2°53.822 -999 -999 -999 -999
2007-06-20 06:52:38 51°14.184 2°53.798 -999 -999 -999 -999
2007-06-20 06:52:43 51°14.176 2°53.773 -999 -999 -999 -999
2007-06-20 06:52:48 51°14.168 2°53.748 -999 -999 -999 -999
2007-06-20 06:52:53 51°14.159 2°53.724 -999 -999 -999 -999
2007-06-20 06:52:58 51°14.15 2°53.699 -999 -999 -999 -999
2007-06-20 06:53:03 51°14.142 2°53.675 -999 -999 -999 -999
2007-06-20 06:53:08 51°14.134 2°53.65 -999 -999 -999 -999
2007-06-20 06:53:13 51°14.126 2°53.625 -999 -999 -999 -999
2007-06-20 06:53:18 51°14.119 2°53.6 -999 -999 -999 -999
2007-06-20 06:53:23 51°14.11 2°53.575 -999 -999 -999 -999
2007-06-20 06:53:28 51°14.103 2°53.549 -999 -999 -999 -999
2007-06-20 06:53:33 51°14.095 2°53.524 -999 -999 -999 -999
2007-06-20 06:53:38 51°14.087 2°53.499 -999 -999 -999 -999
2007-06-20 06:53:43 51°14.079 2°53.474 -999 -999 -999 -999
2007-06-20 06:53:48 51°14.071 2°53.448 -999 -999 -999 -999
2007-06-20 06:53:53 51°14.064 2°53.423 -999 -999 -999 -999
2007-06-20 06:53:58 51°14.056 2°53.398 -999 -999 -999 -999
2007-06-20 06:54:03 51°14.048 2°53.372 -999 -999 -999 -999
2007-06-20 06:54:08 51°14.04 2°53.347 -999 -999 -999 -999
2007-06-20 06:54:13 51°14.033 2°53.322 -999 -999 -999 -999
2007-06-20 06:54:18 51°14.025 2°53.297 -999 -999 -999 -999
2007-06-20 06:54:23 51°14.017 2°53.271 -999 -999 -999 -999
2007-06-20 06:54:28 51°14.009 2°53.246 -999 -999 -999 -999
2007-06-20 06:54:33 51°14.001 2°53.22 -999 -999 -999 -999
2007-06-20 06:54:38 51°13.993 2°53.195 -999 -999 -999 -999
2007-06-20 06:54:43 51°13.985 2°53.17 -999 -999 -999 -999
2007-06-20 06:54:48 51°13.977 2°53.144 -999 -999 -999 -999
2007-06-20 06:54:53 51°13.969 2°53.119 -999 -999 -999 -999
2007-06-20 06:54:58 51°13.962 2°53.093 -999 -999 -999 -999
2007-06-20 06:55:03 51°13.954 2°53.068 -999 -999 -999 -999
2007-06-20 06:55:08 51°13.946 2°53.042 -999 -999 -999 -999
2007-06-20 06:55:13 51°13.938 2°53.016 -999 -999 -999 -999
2007-06-20 06:55:18 51°13.93 2°52.991 -999 -999 -999 -999
2007-06-20 06:55:23 51°13.923 2°52.965 -999 -999 -999 -999
2007-06-20 06:55:28 51°13.914 2°52.94 -999 -999 -999 -999
2007-06-20 06:55:33 51°13.906 2°52.915 -999 -999 -999 -999
2007-06-20 06:55:38 51°13.897 2°52.891 -999 -999 -999 -999
2007-06-20 06:55:43 51°13.889 2°52.865 -999 -999 -999 -999
2007-06-20 06:55:48 51°13.879 2°52.841 -999 -999 -999 -999
2007-06-20 06:55:53 51°13.871 2°52.816 -999 -999 -999 -999
2007-06-20 06:55:58 51°13.862 2°52.792 -999 -999 -999 -999
2007-06-20 06:56:03 51°13.853 2°52.767 -999 -999 -999 -999
2007-06-20 06:56:08 51°13.844 2°52.742 -999 -999 -999 -999
2007-06-20 06:56:13 51°13.835 2°52.718 -999 -999 -999 -999
2007-06-20 06:56:18 51°13.826 2°52.693 -999 -999 -999 -999
2007-06-20 06:56:23 51°13.817 2°52.668 -999 -999 -999 -999
2007-06-20 06:56:28 51°13.808 2°52.644 -999 -999 -999 -999
2007-06-20 06:56:33 51°13.799 2°52.619 -999 -999 -999 -999
2007-06-20 06:56:38 51°13.791 2°52.594 -999 -999 -999 -999
2007-06-20 06:56:43 51°13.781 2°52.57 -999 -999 -999 -999
2007-06-20 06:56:48 51°13.773 2°52.545 -999 -999 -999 -999
2007-06-20 06:56:53 51°13.764 2°52.521 -999 -999 -999 -999
2007-06-20 06:56:58 51°13.755 2°52.496 -999 -999 -999 -999
2007-06-20 06:57:03 51°13.746 2°52.472 -999 -999 -999 -999
2007-06-20 06:57:08 51°13.736 2°52.448 -999 -999 -999 -999
2007-06-20 06:57:13 51°13.727 2°52.423 -999 -999 -999 -999
2007-06-20 06:57:18 51°13.718 2°52.398 -999 -999 -999 -999
2007-06-20 06:57:23 51°13.709 2°52.374 -999 -999 -999 -999
2007-06-20 06:57:28 51°13.699 2°52.35 -999 -999 -999 -999
2007-06-20 06:57:33 51°13.69 2°52.325 -999 -999 -999 -999
2007-06-20 06:57:38 51°13.681 2°52.3 -999 -999 -999 -999
2007-06-20 06:57:43 51°13.673 2°52.276 -999 -999 -999 -999
2007-06-20 06:57:48 51°13.663 2°52.251 -999 -999 -999 -999
2007-06-20 06:57:53 51°13.655 2°52.226 -999 -999 -999 -999
2007-06-20 06:57:58 51°13.646 2°52.201 -999 -999 -999 -999
2007-06-20 06:58:03 51°13.637 2°52.176 -999 -999 -999 -999
2007-06-20 06:58:08 51°13.629 2°52.151 -999 -999 -999 -999
2007-06-20 06:58:13 51°13.62 2°52.126 -999 -999 -999 -999
2007-06-20 06:58:18 51°13.611 2°52.101 -999 -999 -999 -999
2007-06-20 06:58:23 51°13.602 2°52.076 -999 -999 -999 -999
2007-06-20 06:58:28 51°13.593 2°52.052 -999 -999 -999 -999
2007-06-20 06:58:33 51°13.585 2°52.027 -999 -999 -999 -999
2007-06-20 06:58:38 51°13.576 2°52.002 -999 -999 -999 -999
2007-06-20 06:58:43 51°13.567 2°51.977 -999 -999 -999 -999
2007-06-20 06:58:48 51°13.558 2°51.952 -999 -999 -999 -999
2007-06-20 06:58:53 51°13.549 2°51.928 -999 -999 -999 -999
2007-06-20 06:58:58 51°13.54 2°51.903 -999 -999 -999 -999
2007-06-20 06:59:03 51°13.531 2°51.878 -999 -999 -999 -999
2007-06-20 06:59:08 51°13.522 2°51.853 -999 -999 -999 -999
2007-06-20 06:59:13 51°13.513 2°51.828 -999 -999 -999 -999
2007-06-20 06:59:18 51°13.504 2°51.803 -999 -999 -999 -999
2007-06-20 06:59:23 51°13.495 2°51.779 -999 -999 -999 -999
2007-06-20 06:59:28 51°13.486 2°51.754 -999 -999 -999 -999
2007-06-20 06:59:33 51°13.477 2°51.729 -999 -999 -999 -999
2007-06-20 06:59:38 51°13.468 2°51.704 -999 -999 -999 -999
2007-06-20 06:59:43 51°13.459 2°51.679 -999 -999 -999 -999
2007-06-20 06:59:48 51°13.451 2°51.654 -999 -999 -999 -999
2007-06-20 06:59:53 51°13.442 2°51.629 -999 -999 -999 -999
2007-06-20 06:59:58 51°13.433 2°51.604 -999 -999 -999 -999
2007-06-20 07:00:03 51°13.424 2°51.579 -999 -999 -999 -999
2007-06-20 07:00:08 51°13.416 2°51.554 -999 -999 -999 -999
2007-06-20 07:00:13 51°13.407 2°51.529 -999 -999 -999 -999
2007-06-20 07:00:18 51°13.398 2°51.504 -999 -999 -999 -999
2007-06-20 07:00:23 51°13.389 2°51.48 -999 -999 -999 -999
2007-06-20 07:00:28 51°13.38 2°51.455 -999 -999 -999 -999
2007-06-20 07:00:33 51°13.371 2°51.43 -999 -999 -999 -999
2007-06-20 07:00:38 51°13.362 2°51.405 -999 -999 -999 -999
2007-06-20 07:00:43 51°13.353 2°51.38 -999 -999 -999 -999
2007-06-20 07:00:48 51°13.344 2°51.355 -999 -999 -999 -999
2007-06-20 07:00:53 51°13.335 2°51.33 -999 -999 -999 -999
2007-06-20 07:00:58 51°13.326 2°51.306 -999 -999 -999 -999
2007-06-20 07:01:03 51°13.317 2°51.281 -999 -999 -999 -999
2007-06-20 07:01:08 51°13.308 2°51.256 -999 -999 -999 -999
2007-06-20 07:01:13 51°13.299 2°51.231 -999 -999 -999 -999
2007-06-20 07:01:18 51°13.29 2°51.207 -999 -999 -999 -999
2007-06-20 07:01:23 51°13.282 2°51.182 -999 -999 -999 -999
2007-06-20 07:01:28 51°13.273 2°51.157 -999 -999 -999 -999
2007-06-20 07:01:33 51°13.264 2°51.132 -999 -999 -999 -999
2007-06-20 07:01:38 51°13.255 2°51.107 -999 -999 -999 -999
2007-06-20 07:01:43 51°13.247 2°51.082 -999 -999 -999 -999
2007-06-20 07:01:48 51°13.237 2°51.057 -999 -999 -999 -999
2007-06-20 07:01:53 51°13.229 2°51.032 -999 -999 -999 -999
2007-06-20 07:01:58 51°13.22 2°51.007 -999 -999 -999 -999
2007-06-20 07:02:03 51°13.211 2°50.982 -999 -999 -999 -999
2007-06-20 07:02:08 51°13.202 2°50.958 -999 -999 -999 -999
2007-06-20 07:02:13 51°13.193 2°50.933 -999 -999 -999 -999
2007-06-20 07:02:18 51°13.184 2°50.908 -999 -999 -999 -999
2007-06-20 07:02:23 51°13.175 2°50.883 -999 -999 -999 -999
2007-06-20 07:02:28 51°13.166 2°50.859 -999 -999 -999 -999
2007-06-20 07:02:33 51°13.157 2°50.834 -999 -999 -999 -999
2007-06-20 07:02:38 51°13.148 2°50.809 -999 -999 -999 -999
2007-06-20 07:02:43 51°13.139 2°50.785 -999 -999 -999 -999
2007-06-20 07:02:48 51°13.131 2°50.76 -999 -999 -999 -999
2007-06-20 07:02:53 51°13.122 2°50.736 -999 -999 -999 -999
2007-06-20 07:02:58 51°13.113 2°50.711 -999 -999 -999 -999
2007-06-20 07:03:03 51°13.104 2°50.686 -999 -999 -999 -999
2007-06-20 07:03:08 51°13.095 2°50.662 -999 -999 -999 -999
2007-06-20 07:03:13 51°13.086 2°50.637 -999 -999 -999 -999
2007-06-20 07:03:18 51°13.078 2°50.612 -999 -999 -999 -999
2007-06-20 07:03:23 51°13.069 2°50.588 -999 -999 -999 -999
2007-06-20 07:03:28 51°13.06 2°50.563 -999 -999 -999 -999
2007-06-20 07:03:33 51°13.052 2°50.538 -999 -999 -999 -999
2007-06-20 07:03:38 51°13.043 2°50.513 -999 -999 -999 -999
2007-06-20 07:03:43 51°13.034 2°50.489 -999 -999 -999 -999
2007-06-20 07:03:48 51°13.025 2°50.464 -999 -999 -999 -999
2007-06-20 07:03:53 51°13.016 2°50.44 -999 -999 -999 -999
2007-06-20 07:03:58 51°13.007 2°50.415 -999 -999 -999 -999
2007-06-20 07:04:03 51°12.998 2°50.391 -999 -999 -999 -999
2007-06-20 07:04:08 51°12.989 2°50.366 -999 -999 -999 -999
2007-06-20 07:04:13 51°12.981 2°50.341 -999 -999 -999 -999
2007-06-20 07:04:18 51°12.972 2°50.316 -999 -999 -999 -999
2007-06-20 07:04:23 51°12.964 2°50.292 -999 -999 -999 -999
2007-06-20 07:04:28 51°12.955 2°50.267 -999 -999 -999 -999
2007-06-20 07:04:33 51°12.946 2°50.243 -999 -999 -999 -999
2007-06-20 07:04:38 51°12.937 2°50.218 -999 -999 -999 -999
2007-06-20 07:04:43 51°12.928 2°50.193 -999 -999 -999 -999
2007-06-20 07:04:48 51°12.919 2°50.169 -999 -999 -999 -999
2007-06-20 07:04:53 51°12.911 2°50.144 -999 -999 -999 -999
2007-06-20 07:04:58 51°12.902 2°50.119 -999 -999 -999 -999
2007-06-20 07:05:03 51°12.894 2°50.095 -999 -999 -999 -999
2007-06-20 07:05:08 51°12.885 2°50.07 -999 -999 -999 -999
2007-06-20 07:05:13 51°12.876 2°50.045 -999 -999 -999 -999
2007-06-20 07:05:18 51°12.868 2°50.021 -999 -999 -999 -999
2007-06-20 07:05:23 51°12.859 2°49.996 -999 -999 -999 -999
2007-06-20 07:05:28 51°12.851 2°49.971 -999 -999 -999 -999
2007-06-20 07:05:33 51°12.843 2°49.946 -999 -999 -999 -999
2007-06-20 07:05:38 51°12.834 2°49.92 -999 -999 -999 -999
2007-06-20 07:05:43 51°12.826 2°49.895 -999 -999 -999 -999
2007-06-20 07:05:48 51°12.818 2°49.87 -999 -999 -999 -999
2007-06-20 07:05:53 51°12.81 2°49.844 -999 -999 -999 -999
2007-06-20 07:05:58 51°12.802 2°49.819 -999 -999 -999 -999
2007-06-20 07:06:03 51°12.794 2°49.794 -999 -999 -999 -999
2007-06-20 07:06:08 51°12.786 2°49.768 -999 -999 -999 -999
2007-06-20 07:06:13 51°12.778 2°49.743 -999 -999 -999 -999
2007-06-20 07:06:18 51°12.77 2°49.718 -999 -999 -999 -999
2007-06-20 07:06:23 51°12.762 2°49.693 -999 -999 -999 -999
2007-06-20 07:06:28 51°12.754 2°49.667 -999 -999 -999 -999
2007-06-20 07:06:33 51°12.746 2°49.642 -999 -999 -999 -999
2007-06-20 07:06:38 51°12.738 2°49.617 -999 -999 -999 -999
2007-06-20 07:06:43 51°12.73 2°49.592 -999 -999 -999 -999
2007-06-20 07:06:48 51°12.721 2°49.567 -999 -999 -999 -999
2007-06-20 07:06:53 51°12.714 2°49.541 -999 -999 -999 -999
2007-06-20 07:06:58 51°12.705 2°49.516 -999 -999 -999 -999
2007-06-20 07:07:03 51°12.697 2°49.491 -999 -999 -999 -999
2007-06-20 07:07:08 51°12.69 2°49.465 -999 -999 -999 -999
2007-06-20 07:07:13 51°12.681 2°49.44 -999 -999 -999 -999
2007-06-20 07:07:18 51°12.674 2°49.414 -999 -999 -999 -999
2007-06-20 07:07:23 51°12.666 2°49.389 -999 -999 -999 -999
2007-06-20 07:07:28 51°12.658 2°49.363 -999 -999 -999 -999
2007-06-20 07:07:33 51°12.65 2°49.338 -999 -999 -999 -999
2007-06-20 07:07:38 51°12.642 2°49.313 -999 -999 -999 -999
2007-06-20 07:07:43 51°12.633 2°49.287 -999 -999 -999 -999
2007-06-20 07:07:48 51°12.625 2°49.262 -999 -999 -999 -999
2007-06-20 07:07:53 51°12.617 2°49.236 -999 -999 -999 -999
2007-06-20 07:07:58 51°12.609 2°49.211 -999 -999 -999 -999
2007-06-20 07:08:03 51°12.601 2°49.185 -999 -999 -999 -999
2007-06-20 07:08:08 51°12.593 2°49.16 -999 -999 -999 -999
2007-06-20 07:08:13 51°12.585 2°49.135 -999 -999 -999 -999
2007-06-20 07:08:18 51°12.576 2°49.109 -999 -999 -999 -999
2007-06-20 07:08:23 51°12.569 2°49.084 -999 -999 -999 -999
2007-06-20 07:08:28 51°12.56 2°49.058 -999 -999 -999 -999
2007-06-20 07:08:33 51°12.553 2°49.032 -999 -999 -999 -999
2007-06-20 07:08:38 51°12.544 2°49.007 -999 -999 -999 -999
2007-06-20 07:08:43 51°12.537 2°48.981 -999 -999 -999 -999
2007-06-20 07:08:48 51°12.529 2°48.955 -999 -999 -999 -999
2007-06-20 07:08:53 51°12.521 2°48.929 -999 -999 -999 -999
2007-06-20 07:08:58 51°12.513 2°48.904 -999 -999 -999 -999
2007-06-20 07:09:03 51°12.505 2°48.878 -999 -999 -999 -999
2007-06-20 07:09:08 51°12.497 2°48.852 -999 -999 -999 -999
2007-06-20 07:09:13 51°12.489 2°48.827 -999 -999 -999 -999
2007-06-20 07:09:18 51°12.481 2°48.801 -999 -999 -999 -999
2007-06-20 07:09:23 51°12.473 2°48.776 -999 -999 -999 -999
2007-06-20 07:09:28 51°12.465 2°48.75 -999 -999 -999 -999
2007-06-20 07:09:33 51°12.457 2°48.724 -999 -999 -999 -999
2007-06-20 07:09:38 51°12.449 2°48.699 -999 -999 -999 -999
2007-06-20 07:09:43 51°12.441 2°48.673 -999 -999 -999 -999
2007-06-20 07:09:48 51°12.433 2°48.647 -999 -999 -999 -999
2007-06-20 07:09:53 51°12.425 2°48.622 -999 -999 -999 -999
2007-06-20 07:09:58 51°12.417 2°48.596 -999 -999 -999 -999
2007-06-20 07:10:03 51°12.408 2°48.57 -999 -999 -999 -999
2007-06-20 07:10:08 51°12.4 2°48.544 -999 -999 -999 -999
2007-06-20 07:10:13 51°12.393 2°48.519 -999 -999 -999 -999
2007-06-20 07:10:18 51°12.385 2°48.492 -999 -999 -999 -999
2007-06-20 07:10:23 51°12.377 2°48.467 -999 -999 -999 -999
2007-06-20 07:10:28 51°12.369 2°48.441 -999 -999 -999 -999
2007-06-20 07:10:33 51°12.36 2°48.416 -999 -999 -999 -999
2007-06-20 07:10:38 51°12.352 2°48.39 -999 -999 -999 -999
2007-06-20 07:10:43 51°12.344 2°48.364 -999 -999 -999 -999
2007-06-20 07:10:48 51°12.336 2°48.338 -999 -999 -999 -999
2007-06-20 07:10:53 51°12.328 2°48.312 -999 -999 -999 -999
2007-06-20 07:10:58 51°12.32 2°48.287 -999 -999 -999 -999
2007-06-20 07:11:03 51°12.312 2°48.261 -999 -999 -999 -999
2007-06-20 07:11:08 51°12.304 2°48.235 -999 -999 -999 -999
2007-06-20 07:11:13 51°12.296 2°48.21 -999 -999 -999 -999
2007-06-20 07:11:18 51°12.288 2°48.183 -999 -999 -999 -999
2007-06-20 07:11:23 51°12.279 2°48.158 -999 -999 -999 -999
2007-06-20 07:11:28 51°12.272 2°48.132 -999 -999 -999 -999
2007-06-20 07:11:33 51°12.264 2°48.106 -999 -999 -999 -999
2007-06-20 07:11:38 51°12.255 2°48.08 -999 -999 -999 -999
2007-06-20 07:11:43 51°12.247 2°48.054 -999 -999 -999 -999
2007-06-20 07:11:48 51°12.239 2°48.029 -999 -999 -999 -999
2007-06-20 07:11:53 51°12.231 2°48.003 -999 -999 -999 -999
2007-06-20 07:11:58 51°12.223 2°47.977 -999 -999 -999 -999
2007-06-20 07:12:03 51°12.215 2°47.951 -999 -999 -999 -999
2007-06-20 07:12:08 51°12.207 2°47.925 -999 -999 -999 -999
2007-06-20 07:12:13 51°12.199 2°47.899 -999 -999 -999 -999
2007-06-20 07:12:18 51°12.191 2°47.874 -999 -999 -999 -999
2007-06-20 07:12:23 51°12.183 2°47.848 -999 -999 -999 -999
2007-06-20 07:12:28 51°12.175 2°47.822 -999 -999 -999 -999
2007-06-20 07:12:33 51°12.167 2°47.796 -999 -999 -999 -999
2007-06-20 07:12:38 51°12.159 2°47.771 -999 -999 -999 -999
2007-06-20 07:12:43 51°12.151 2°47.745 -999 -999 -999 -999
2007-06-20 07:12:48 51°12.143 2°47.72 -999 -999 -999 -999
2007-06-20 07:12:53 51°12.135 2°47.694 -999 -999 -999 -999
2007-06-20 07:12:58 51°12.127 2°47.668 -999 -999 -999 -999
2007-06-20 07:13:03 51°12.119 2°47.642 -999 -999 -999 -999
2007-06-20 07:13:08 51°12.111 2°47.617 -999 -999 -999 -999
2007-06-20 07:13:13 51°12.103 2°47.591 -999 -999 -999 -999
2007-06-20 07:13:18 51°12.095 2°47.565 -999 -999 -999 -999
2007-06-20 07:13:23 51°12.087 2°47.539 -999 -999 -999 -999
2007-06-20 07:13:28 51°12.079 2°47.514 -999 -999 -999 -999
2007-06-20 07:13:33 51°12.071 2°47.488 -999 -999 -999 -999
2007-06-20 07:13:38 51°12.063 2°47.462 -999 -999 -999 -999
2007-06-20 07:13:43 51°12.055 2°47.436 -999 -999 -999 -999
2007-06-20 07:13:48 51°12.047 2°47.411 -999 -999 -999 -999
2007-06-20 07:13:53 51°12.039 2°47.385 -999 -999 -999 -999
2007-06-20 07:13:58 51°12.031 2°47.359 -999 -999 -999 -999
2007-06-20 07:14:03 51°12.023 2°47.334 -999 -999 -999 -999
2007-06-20 07:14:08 51°12.015 2°47.308 -999 -999 -999 -999
2007-06-20 07:14:13 51°12.006 2°47.283 -999 -999 -999 -999
2007-06-20 07:14:18 51°11.999 2°47.257 -999 -999 -999 -999
2007-06-20 07:14:23 51°11.991 2°47.231 -999 -999 -999 -999
2007-06-20 07:14:28 51°11.983 2°47.205 -999 -999 -999 -999
2007-06-20 07:14:33 51°11.975 2°47.18 -999 -999 -999 -999
2007-06-20 07:14:38 51°11.967 2°47.154 -999 -999 -999 -999
2007-06-20 07:14:43 51°11.959 2°47.129 -999 -999 -999 -999
2007-06-20 07:14:48 51°11.951 2°47.103 -999 -999 -999 -999
2007-06-20 07:14:53 51°11.943 2°47.077 -999 -999 -999 -999
2007-06-20 07:14:58 51°11.935 2°47.052 -999 -999 -999 -999
2007-06-20 07:15:03 51°11.927 2°47.026 -999 -999 -999 -999
2007-06-20 07:15:08 51°11.919 2°47 -999 -999 -999 -999
2007-06-20 07:15:13 51°11.911 2°46.974 -999 -999 -999 -999
2007-06-20 07:15:18 51°11.903 2°46.949 -999 -999 -999 -999
2007-06-20 07:15:23 51°11.895 2°46.923 -999 -999 -999 -999
2007-06-20 07:15:28 51°11.887 2°46.897 -999 -999 -999 -999
2007-06-20 07:15:33 51°11.879 2°46.871 -999 -999 -999 -999
2007-06-20 07:15:38 51°11.871 2°46.846 -999 -999 -999 -999
2007-06-20 07:15:43 51°11.863 2°46.82 -999 -999 -999 -999
2007-06-20 07:15:48 51°11.855 2°46.794 -999 -999 -999 -999
2007-06-20 07:15:53 51°11.847 2°46.768 -999 -999 -999 -999
2007-06-20 07:15:58 51°11.839 2°46.742 -999 -999 -999 -999
2007-06-20 07:16:03 51°11.831 2°46.716 -999 -999 -999 -999
2007-06-20 07:16:08 51°11.823 2°46.69 -999 -999 -999 -999
2007-06-20 07:16:13 51°11.815 2°46.665 -999 -999 -999 -999
2007-06-20 07:16:18 51°11.806 2°46.639 -999 -999 -999 -999
2007-06-20 07:16:23 51°11.798 2°46.614 -999 -999 -999 -999
2007-06-20 07:16:28 51°11.789 2°46.589 -999 -999 -999 -999
2007-06-20 07:16:33 51°11.78 2°46.563 -999 -999 -999 -999
2007-06-20 07:16:38 51°11.771 2°46.538 -999 -999 -999 -999
2007-06-20 07:16:43 51°11.762 2°46.513 -999 -999 -999 -999
2007-06-20 07:16:48 51°11.754 2°46.487 -999 -999 -999 -999
2007-06-20 07:16:53 51°11.745 2°46.462 -999 -999 -999 -999
2007-06-20 07:16:58 51°11.737 2°46.437 -999 -999 -999 -999
2007-06-20 07:17:03 51°11.728 2°46.411 -999 -999 -999 -999
2007-06-20 07:17:08 51°11.72 2°46.385 -999 -999 -999 -999
2007-06-20 07:17:13 51°11.712 2°46.36 -999 -999 -999 -999
2007-06-20 07:17:18 51°11.704 2°46.334 -999 -999 -999 -999
2007-06-20 07:17:23 51°11.695 2°46.309 -999 -999 -999 -999
2007-06-20 07:17:28 51°11.687 2°46.283 -999 -999 -999 -999
2007-06-20 07:17:33 51°11.678 2°46.258 -999 -999 -999 -999
2007-06-20 07:17:38 51°11.67 2°46.232 -999 -999 -999 -999
2007-06-20 07:17:43 51°11.661 2°46.207 -999 -999 -999 -999
2007-06-20 07:17:48 51°11.653 2°46.181 -999 -999 -999 -999
2007-06-20 07:17:53 51°11.645 2°46.156 -999 -999 -999 -999
2007-06-20 07:17:58 51°11.636 2°46.13 -999 -999 -999 -999
2007-06-20 07:18:03 51°11.628 2°46.105 -999 -999 -999 -999
2007-06-20 07:18:08 51°11.62 2°46.079 -999 -999 -999 -999
2007-06-20 07:18:13 51°11.611 2°46.054 -999 -999 -999 -999
2007-06-20 07:18:18 51°11.603 2°46.028 -999 -999 -999 -999
2007-06-20 07:18:23 51°11.595 2°46.002 -999 -999 -999 -999
2007-06-20 07:18:28 51°11.586 2°45.977 -999 -999 -999 -999
2007-06-20 07:18:33 51°11.578 2°45.951 -999 -999 -999 -999
2007-06-20 07:18:38 51°11.57 2°45.926 -999 -999 -999 -999
2007-06-20 07:18:43 51°11.562 2°45.9 -999 -999 -999 -999
2007-06-20 07:18:48 51°11.553 2°45.875 -999 -999 -999 -999
2007-06-20 07:18:53 51°11.545 2°45.85 -999 -999 -999 -999
2007-06-20 07:18:58 51°11.537 2°45.825 -999 -999 -999 -999
2007-06-20 07:19:03 51°11.529 2°45.799 -999 -999 -999 -999
2007-06-20 07:19:08 51°11.52 2°45.774 -999 -999 -999 -999
2007-06-20 07:19:13 51°11.512 2°45.749 -999 -999 -999 -999
2007-06-20 07:19:18 51°11.503 2°45.724 -999 -999 -999 -999
2007-06-20 07:19:23 51°11.495 2°45.698 -999 -999 -999 -999
2007-06-20 07:19:28 51°11.487 2°45.673 -999 -999 -999 -999
2007-06-20 07:19:33 51°11.478 2°45.647 -999 -999 -999 -999
2007-06-20 07:19:38 51°11.47 2°45.622 -999 -999 -999 -999
2007-06-20 07:19:43 51°11.462 2°45.597 -999 -999 -999 -999
2007-06-20 07:19:48 51°11.454 2°45.572 -999 -999 -999 -999
2007-06-20 07:19:53 51°11.445 2°45.546 -999 -999 -999 -999
2007-06-20 07:19:58 51°11.437 2°45.521 -999 -999 -999 -999
2007-06-20 07:20:03 51°11.429 2°45.495 -999 -999 -999 -999
2007-06-20 07:20:08 51°11.421 2°45.47 -999 -999 -999 -999
2007-06-20 07:20:13 51°11.412 2°45.444 -999 -999 -999 -999
2007-06-20 07:20:18 51°11.404 2°45.419 -999 -999 -999 -999
2007-06-20 07:20:23 51°11.396 2°45.393 -999 -999 -999 -999
2007-06-20 07:20:28 51°11.388 2°45.367 -999 -999 -999 -999
2007-06-20 07:20:33 51°11.379 2°45.342 -999 -999 -999 -999
2007-06-20 07:20:38 51°11.371 2°45.316 -999 -999 -999 -999
2007-06-20 07:20:43 51°11.362 2°45.291 -999 -999 -999 -999
2007-06-20 07:20:48 51°11.355 2°45.265 -999 -999 -999 -999
2007-06-20 07:20:53 51°11.346 2°45.24 -999 -999 -999 -999
2007-06-20 07:20:58 51°11.338 2°45.214 -999 -999 -999 -999
2007-06-20 07:21:03 51°11.329 2°45.188 -999 -999 -999 -999
2007-06-20 07:21:08 51°11.322 2°45.162 -999 -999 -999 -999
2007-06-20 07:21:13 51°11.313 2°45.137 -999 -999 -999 -999
2007-06-20 07:21:18 51°11.305 2°45.111 -999 -999 -999 -999
2007-06-20 07:21:23 51°11.296 2°45.086 -999 -999 -999 -999
2007-06-20 07:21:28 51°11.288 2°45.06 -999 -999 -999 -999
2007-06-20 07:21:33 51°11.279 2°45.035 -999 -999 -999 -999
2007-06-20 07:21:38 51°11.271 2°45.009 -999 -999 -999 -999
2007-06-20 07:21:43 51°11.263 2°44.983 -999 -999 -999 -999
2007-06-20 07:21:48 51°11.255 2°44.957 -999 -999 -999 -999
2007-06-20 07:21:53 51°11.246 2°44.932 -999 -999 -999 -999
2007-06-20 07:21:58 51°11.238 2°44.906 -999 -999 -999 -999
2007-06-20 07:22:03 51°11.23 2°44.88 -999 -999 -999 -999
2007-06-20 07:22:08 51°11.221 2°44.854 -999 -999 -999 -999
2007-06-20 07:22:13 51°11.213 2°44.828 -999 -999 -999 -999
2007-06-20 07:22:18 51°11.205 2°44.803 -999 -999 -999 -999
2007-06-20 07:22:23 51°11.196 2°44.777 -999 -999 -999 -999
2007-06-20 07:22:28 51°11.188 2°44.751 -999 -999 -999 -999
2007-06-20 07:22:33 51°11.18 2°44.725 -999 -999 -999 -999
2007-06-20 07:22:38 51°11.172 2°44.699 -999 -999 -999 -999
2007-06-20 07:22:43 51°11.163 2°44.673 -999 -999 -999 -999
2007-06-20 07:22:48 51°11.155 2°44.647 -999 -999 -999 -999
2007-06-20 07:22:53 51°11.147 2°44.621 -999 -999 -999 -999
2007-06-20 07:22:58 51°11.138 2°44.596 -999 -999 -999 -999
2007-06-20 07:23:03 51°11.13 2°44.57 -999 -999 -999 -999
2007-06-20 07:23:08 51°11.121 2°44.544 -999 -999 -999 -999
2007-06-20 07:23:13 51°11.113 2°44.518 -999 -999 -999 -999
2007-06-20 07:23:18 51°11.105 2°44.492 -999 -999 -999 -999
2007-06-20 07:23:23 51°11.096 2°44.467 -999 -999 -999 -999
2007-06-20 07:23:28 51°11.088 2°44.441 -999 -999 -999 -999
2007-06-20 07:23:33 51°11.08 2°44.415 -999 -999 -999 -999
2007-06-20 07:23:38 51°11.072 2°44.389 -999 -999 -999 -999
2007-06-20 07:23:43 51°11.063 2°44.363 -999 -999 -999 -999
2007-06-20 07:23:48 51°11.055 2°44.337 -999 -999 -999 -999
2007-06-20 07:23:53 51°11.047 2°44.312 -999 -999 -999 -999
2007-06-20 07:23:58 51°11.039 2°44.286 -999 -999 -999 -999
2007-06-20 07:24:03 51°11.03 2°44.26 -999 -999 -999 -999
2007-06-20 07:24:08 51°11.022 2°44.235 -999 -999 -999 -999
2007-06-20 07:24:13 51°11.014 2°44.209 -999 -999 -999 -999
2007-06-20 07:24:18 51°11.005 2°44.183 -999 -999 -999 -999
2007-06-20 07:24:23 51°10.997 2°44.157 -999 -999 -999 -999
2007-06-20 07:24:28 51°10.988 2°44.132 -999 -999 -999 -999
2007-06-20 07:24:33 51°10.98 2°44.106 -999 -999 -999 -999
2007-06-20 07:24:38 51°10.971 2°44.08 -999 -999 -999 -999
2007-06-20 07:24:43 51°10.963 2°44.054 -999 -999 -999 -999
2007-06-20 07:24:48 51°10.955 2°44.028 -999 -999 -999 -999
2007-06-20 07:24:53 51°10.946 2°44.003 -999 -999 -999 -999
2007-06-20 07:24:58 51°10.938 2°43.976 -999 -999 -999 -999
2007-06-20 07:25:03 51°10.929 2°43.95 -999 -999 -999 -999
2007-06-20 07:25:08 51°10.921 2°43.924 -999 -999 -999 -999
2007-06-20 07:25:13 51°10.913 2°43.898 -999 -999 -999 -999
2007-06-20 07:25:18 51°10.905 2°43.872 -999 -999 -999 -999
2007-06-20 07:25:23 51°10.897 2°43.846 -999 -999 -999 -999
2007-06-20 07:25:28 51°10.889 2°43.82 -999 -999 -999 -999
2007-06-20 07:25:33 51°10.881 2°43.793 -999 -999 -999 -999
2007-06-20 07:25:38 51°10.873 2°43.767 -999 -999 -999 -999
2007-06-20 07:25:43 51°10.864 2°43.742 -999 -999 -999 -999
2007-06-20 07:25:48 51°10.856 2°43.716 -999 -999 -999 -999
2007-06-20 07:25:53 51°10.847 2°43.69 -999 -999 -999 -999
2007-06-20 07:25:58 51°10.839 2°43.664 -999 -999 -999 -999
2007-06-20 07:26:03 51°10.831 2°43.638 -999 -999 -999 -999
2007-06-20 07:26:08 51°10.822 2°43.612 -999 -999 -999 -999
2007-06-20 07:26:13 51°10.813 2°43.586 -999 -999 -999 -999
2007-06-20 07:26:18 51°10.804 2°43.561 -999 -999 -999 -999
2007-06-20 07:26:23 51°10.794 2°43.536 -999 -999 -999 -999
2007-06-20 07:26:28 51°10.785 2°43.512 -999 -999 -999 -999
2007-06-20 07:26:33 51°10.775 2°43.487 -999 -999 -999 -999
2007-06-20 07:26:38 51°10.765 2°43.463 -999 -999 -999 -999
2007-06-20 07:26:43 51°10.755 2°43.438 -999 -999 -999 -999
2007-06-20 07:26:48 51°10.745 2°43.413 -999 -999 -999 -999
2007-06-20 07:26:53 51°10.735 2°43.389 -999 -999 -999 -999
2007-06-20 07:26:58 51°10.726 2°43.364 -999 -999 -999 -999
2007-06-20 07:27:03 51°10.716 2°43.34 -999 -999 -999 -999
2007-06-20 07:27:08 51°10.706 2°43.316 -999 -999 -999 -999
2007-06-20 07:27:13 51°10.696 2°43.292 -999 -999 -999 -999
2007-06-20 07:27:18 51°10.686 2°43.267 -999 -999 -999 -999
2007-06-20 07:27:23 51°10.676 2°43.243 -999 -999 -999 -999
2007-06-20 07:27:28 51°10.666 2°43.218 -999 -999 -999 -999
2007-06-20 07:27:33 51°10.656 2°43.194 -999 -999 -999 -999
2007-06-20 07:27:38 51°10.646 2°43.169 -999 -999 -999 -999
2007-06-20 07:27:43 51°10.637 2°43.145 -999 -999 -999 -999
2007-06-20 07:27:48 51°10.627 2°43.12 -999 -999 -999 -999
2007-06-20 07:27:53 51°10.617 2°43.095 -999 -999 -999 -999
2007-06-20 07:27:58 51°10.607 2°43.071 -999 -999 -999 -999
2007-06-20 07:28:03 51°10.598 2°43.046 -999 -999 -999 -999
2007-06-20 07:28:08 51°10.588 2°43.022 -999 -999 -999 -999
2007-06-20 07:28:13 51°10.578 2°42.997 -999 -999 -999 -999
2007-06-20 07:28:18 51°10.569 2°42.972 -999 -999 -999 -999
2007-06-20 07:28:23 51°10.559 2°42.948 -999 -999 -999 -999
2007-06-20 07:28:28 51°10.55 2°42.923 -999 -999 -999 -999
2007-06-20 07:28:33 51°10.54 2°42.898 -999 -999 -999 -999
2007-06-20 07:28:38 51°10.53 2°42.873 -999 -999 -999 -999
2007-06-20 07:28:43 51°10.521 2°42.848 -999 -999 -999 -999
2007-06-20 07:28:48 51°10.512 2°42.824 -999 -999 -999 -999
2007-06-20 07:28:53 51°10.502 2°42.799 -999 -999 -999 -999
2007-06-20 07:28:58 51°10.493 2°42.774 -999 -999 -999 -999
2007-06-20 07:29:03 51°10.483 2°42.749 -999 -999 -999 -999
2007-06-20 07:29:08 51°10.473 2°42.724 -999 -999 -999 -999
2007-06-20 07:29:13 51°10.464 2°42.7 -999 -999 -999 -999
2007-06-20 07:29:18 51°10.454 2°42.675 -999 -999 -999 -999
2007-06-20 07:29:23 51°10.444 2°42.65 -999 -999 -999 -999
2007-06-20 07:29:28 51°10.434 2°42.626 -999 -999 -999 -999
2007-06-20 07:29:33 51°10.425 2°42.601 -999 -999 -999 -999
2007-06-20 07:29:38 51°10.415 2°42.576 -999 -999 -999 -999
2007-06-20 07:29:43 51°10.405 2°42.551 -999 -999 -999 -999
2007-06-20 07:29:48 51°10.395 2°42.527 -999 -999 -999 -999
2007-06-20 07:29:53 51°10.386 2°42.502 -999 -999 -999 -999
2007-06-20 07:29:58 51°10.376 2°42.477 -999 -999 -999 -999
2007-06-20 07:30:03 51°10.367 2°42.452 -999 -999 -999 -999
2007-06-20 07:30:08 51°10.357 2°42.427 -999 -999 -999 -999
2007-06-20 07:30:13 51°10.347 2°42.402 -999 -999 -999 -999
2007-06-20 07:30:18 51°10.338 2°42.377 -999 -999 -999 -999
2007-06-20 07:30:23 51°10.328 2°42.352 -999 -999 -999 -999
2007-06-20 07:30:28 51°10.319 2°42.327 -999 -999 -999 -999
2007-06-20 07:30:33 51°10.309 2°42.302 -999 -999 -999 -999
2007-06-20 07:30:38 51°10.299 2°42.277 -999 -999 -999 -999
2007-06-20 07:30:43 51°10.289 2°42.252 -999 -999 -999 -999
2007-06-20 07:30:48 51°10.28 2°42.228 -999 -999 -999 -999
2007-06-20 07:30:53 51°10.27 2°42.203 -999 -999 -999 -999
2007-06-20 07:30:58 51°10.26 2°42.178 -999 -999 -999 -999
2007-06-20 07:31:03 51°10.25 2°42.154 -999 -999 -999 -999
2007-06-20 07:31:08 51°10.24 2°42.129 -999 -999 -999 -999
2007-06-20 07:31:13 51°10.231 2°42.104 -999 -999 -999 -999
2007-06-20 07:31:18 51°10.221 2°42.079 -999 -999 -999 -999
2007-06-20 07:31:23 51°10.212 2°42.054 -999 -999 -999 -999
2007-06-20 07:31:28 51°10.202 2°42.029 -999 -999 -999 -999
2007-06-20 07:31:33 51°10.193 2°42.005 -999 -999 -999 -999
2007-06-20 07:31:38 51°10.183 2°41.98 -999 -999 -999 -999
2007-06-20 07:31:43 51°10.174 2°41.954 -999 -999 -999 -999
2007-06-20 07:31:48 51°10.165 2°41.929 -999 -999 -999 -999
2007-06-20 07:31:53 51°10.156 2°41.904 -999 -999 -999 -999
2007-06-20 07:31:58 51°10.147 2°41.878 -999 -999 -999 -999
2007-06-20 07:32:03 51°10.138 2°41.852 -999 -999 -999 -999
2007-06-20 07:32:08 51°10.129 2°41.826 -999 -999 -999 -999
2007-06-20 07:32:13 51°10.121 2°41.801 -999 -999 -999 -999
2007-06-20 07:32:18 51°10.112 2°41.775 -999 -999 -999 -999
2007-06-20 07:32:23 51°10.104 2°41.749 -999 -999 -999 -999
2007-06-20 07:32:28 51°10.095 2°41.723 -999 -999 -999 -999
2007-06-20 07:32:33 51°10.086 2°41.697 -999 -999 -999 -999
2007-06-20 07:32:38 51°10.078 2°41.671 -999 -999 -999 -999
2007-06-20 07:32:43 51°10.07 2°41.645 -999 -999 -999 -999
2007-06-20 07:32:48 51°10.062 2°41.618 -999 -999 -999 -999
2007-06-20 07:32:53 51°10.054 2°41.592 -999 -999 -999 -999
2007-06-20 07:32:58 51°10.046 2°41.565 -999 -999 -999 -999
2007-06-20 07:33:03 51°10.038 2°41.539 -999 -999 -999 -999
2007-06-20 07:33:08 51°10.03 2°41.512 -999 -999 -999 -999
2007-06-20 07:33:13 51°10.022 2°41.486 -999 -999 -999 -999
2007-06-20 07:33:18 51°10.014 2°41.46 -999 -999 -999 -999
2007-06-20 07:33:23 51°10.005 2°41.434 -999 -999 -999 -999
2007-06-20 07:33:28 51°9.997 2°41.407 -999 -999 -999 -999
2007-06-20 07:33:33 51°9.988 2°41.381 -999 -999 -999 -999
2007-06-20 07:33:38 51°9.98 2°41.355 -999 -999 -999 -999
2007-06-20 07:33:43 51°9.971 2°41.329 -999 -999 -999 -999
2007-06-20 07:33:48 51°9.963 2°41.303 -999 -999 -999 -999
2007-06-20 07:33:53 51°9.954 2°41.276 -999 -999 -999 -999
2007-06-20 07:33:58 51°9.946 2°41.25 -999 -999 -999 -999
2007-06-20 07:34:03 51°9.939 2°41.223 -999 -999 -999 -999
2007-06-20 07:34:08 51°9.931 2°41.196 -999 -999 -999 -999
2007-06-20 07:34:13 51°9.923 2°41.169 -999 -999 -999 -999
2007-06-20 07:34:18 51°9.916 2°41.142 -999 -999 -999 -999
2007-06-20 07:34:23 51°9.909 2°41.115 -999 -999 -999 -999
2007-06-20 07:34:28 51°9.901 2°41.088 -999 -999 -999 -999
2007-06-20 07:34:33 51°9.893 2°41.061 -999 -999 -999 -999
2007-06-20 07:34:38 51°9.885 2°41.035 -999 -999 -999 -999
2007-06-20 07:34:43 51°9.877 2°41.008 -999 -999 -999 -999
2007-06-20 07:34:48 51°9.87 2°40.981 -999 -999 -999 -999
2007-06-20 07:34:53 51°9.861 2°40.955 -999 -999 -999 -999
2007-06-20 07:34:58 51°9.854 2°40.928 -999 -999 -999 -999
2007-06-20 07:35:03 51°9.846 2°40.902 -999 -999 -999 -999
2007-06-20 07:35:08 51°9.837 2°40.875 -999 -999 -999 -999
2007-06-20 07:35:13 51°9.83 2°40.848 -999 -999 -999 -999
2007-06-20 07:35:18 51°9.822 2°40.822 -999 -999 -999 -999
2007-06-20 07:35:23 51°9.814 2°40.795 -999 -999 -999 -999
2007-06-20 07:35:28 51°9.806 2°40.768 -999 -999 -999 -999
2007-06-20 07:35:33 51°9.799 2°40.741 -999 -999 -999 -999
2007-06-20 07:35:38 51°9.791 2°40.714 -999 -999 -999 -999
2007-06-20 07:35:43 51°9.783 2°40.688 -999 -999 -999 -999
2007-06-20 07:35:48 51°9.776 2°40.661 -999 -999 -999 -999
2007-06-20 07:35:53 51°9.768 2°40.634 -999 -999 -999 -999
2007-06-20 07:35:58 51°9.76 2°40.607 -999 -999 -999 -999
2007-06-20 07:36:03 51°9.752 2°40.581 -999 -999 -999 -999
2007-06-20 07:36:08 51°9.745 2°40.553 -999 -999 -999 -999
2007-06-20 07:36:13 51°9.737 2°40.527 -999 -999 -999 -999
2007-06-20 07:36:18 51°9.73 2°40.5 -999 -999 -999 -999
2007-06-20 07:36:23 51°9.722 2°40.473 -999 -999 -999 -999
2007-06-20 07:36:28 51°9.715 2°40.446 -999 -999 -999 -999
2007-06-20 07:36:33 51°9.707 2°40.419 -999 -999 -999 -999
2007-06-20 07:36:38 51°9.7 2°40.392 -999 -999 -999 -999
2007-06-20 07:36:43 51°9.692 2°40.366 -999 -999 -999 -999
2007-06-20 07:36:48 51°9.685 2°40.339 -999 -999 -999 -999
2007-06-20 07:36:53 51°9.677 2°40.312 -999 -999 -999 -999
2007-06-20 07:36:58 51°9.669 2°40.285 -999 -999 -999 -999
2007-06-20 07:37:03 51°9.661 2°40.259 -999 -999 -999 -999
2007-06-20 07:37:08 51°9.653 2°40.232 -999 -999 -999 -999
2007-06-20 07:37:13 51°9.645 2°40.206 -999 -999 -999 -999
2007-06-20 07:37:18 51°9.638 2°40.179 -999 -999 -999 -999
2007-06-20 07:37:23 51°9.63 2°40.153 -999 -999 -999 -999
2007-06-20 07:37:28 51°9.622 2°40.126 -999 -999 -999 -999
2007-06-20 07:37:33 51°9.615 2°40.099 -999 -999 -999 -999
2007-06-20 07:37:38 51°9.607 2°40.072 -999 -999 -999 -999
2007-06-20 07:37:43 51°9.6 2°40.046 -999 -999 -999 -999
2007-06-20 07:37:48 51°9.592 2°40.019 -999 -999 -999 -999
2007-06-20 07:37:53 51°9.584 2°39.992 -999 -999 -999 -999
2007-06-20 07:37:58 51°9.577 2°39.965 -999 -999 -999 -999
2007-06-20 07:38:03 51°9.569 2°39.939 -999 -999 -999 -999
2007-06-20 07:38:08 51°9.561 2°39.912 -999 -999 -999 -999
2007-06-20 07:38:13 51°9.552 2°39.886 -999 -999 -999 -999
2007-06-20 07:38:18 51°9.545 2°39.859 -999 -999 -999 -999
2007-06-20 07:38:23 51°9.537 2°39.833 -999 -999 -999 -999
2007-06-20 07:38:28 51°9.529 2°39.806 -999 -999 -999 -999
2007-06-20 07:38:33 51°9.521 2°39.779 -999 -999 -999 -999
2007-06-20 07:38:38 51°9.513 2°39.752 -999 -999 -999 -999
2007-06-20 07:38:43 51°9.505 2°39.725 -999 -999 -999 -999
2007-06-20 07:38:48 51°9.498 2°39.699 -999 -999 -999 -999
2007-06-20 07:38:53 51°9.49 2°39.672 -999 -999 -999 -999
2007-06-20 07:38:58 51°9.482 2°39.645 -999 -999 -999 -999
2007-06-20 07:39:03 51°9.475 2°39.618 -999 -999 -999 -999
2007-06-20 07:39:08 51°9.468 2°39.591 -999 -999 -999 -999
2007-06-20 07:39:13 51°9.46 2°39.564 -999 -999 -999 -999
2007-06-20 07:39:18 51°9.453 2°39.537 -999 -999 -999 -999
2007-06-20 07:39:23 51°9.445 2°39.51 -999 -999 -999 -999
2007-06-20 07:39:28 51°9.438 2°39.483 -999 -999 -999 -999
2007-06-20 07:39:33 51°9.43 2°39.456 -999 -999 -999 -999
2007-06-20 07:39:38 51°9.423 2°39.431 -999 -999 -999 -999
2007-06-20 07:39:43 51°9.416 2°39.407 -999 -999 -999 -999
2007-06-20 07:39:48 51°9.409 2°39.384 -999 -999 -999 -999
2007-06-20 07:39:53 51°9.402 2°39.363 -999 -999 -999 -999
2007-06-20 07:39:58 51°9.396 2°39.343 -999 -999 -999 -999
2007-06-20 07:40:03 51°9.389 2°39.325 -999 -999 -999 -999
2007-06-20 07:40:08 51°9.383 2°39.309 -999 -999 -999 -999
2007-06-20 07:40:13 51°9.377 2°39.295 -999 -999 -999 -999
2007-06-20 07:40:18 51°9.371 2°39.282 -999 -999 -999 -999
2007-06-20 07:40:23 51°9.365 2°39.27 -999 -999 -999 -999
2007-06-20 07:40:28 51°9.359 2°39.259 -999 -999 -999 -999
2007-06-20 07:40:33 51°9.354 2°39.249 -999 -999 -999 -999
2007-06-20 07:40:38 51°9.348 2°39.24 -999 -999 -999 -999
2007-06-20 07:40:43 51°9.343 2°39.232 -999 -999 -999 -999
2007-06-20 07:40:48 51°9.338 2°39.225 -999 -999 -999 -999
2007-06-20 07:40:53 51°9.333 2°39.217 -999 -999 -999 -999
2007-06-20 07:40:58 51°9.328 2°39.211 -999 -999 -999 -999
2007-06-20 07:41:03 51°9.323 2°39.205 -999 -999 -999 -999
2007-06-20 07:41:08 51°9.319 2°39.2 -999 -999 -999 -999
2007-06-20 07:41:13 51°9.314 2°39.194 -999 -999 -999 -999
2007-06-20 07:41:18 51°9.31 2°39.19 -999 -999 -999 -999
2007-06-20 07:41:23 51°9.306 2°39.185 -999 -999 -999 -999
2007-06-20 07:41:28 51°9.302 2°39.181 -999 -999 -999 -999
2007-06-20 07:41:33 51°9.298 2°39.177 -999 -999 -999 -999
2007-06-20 07:41:38 51°9.294 2°39.174 -999 -999 -999 -999
2007-06-20 07:41:43 51°9.29 2°39.17 -999 -999 -999 -999
2007-06-20 07:41:48 51°9.286 2°39.167 -999 -999 -999 -999
2007-06-20 07:41:53 51°9.283 2°39.163 -999 -999 -999 -999
2007-06-20 07:41:58 51°9.279 2°39.16 -999 -999 -999 -999
2007-06-20 07:42:03 51°9.276 2°39.156 -999 -999 -999 -999
2007-06-20 07:42:08 51°9.272 2°39.154 -999 -999 -999 -999
2007-06-20 07:42:13 51°9.269 2°39.15 -999 -999 -999 -999
2007-06-20 07:42:18 51°9.265 2°39.147 -999 -999 -999 -999
2007-06-20 07:42:23 51°9.262 2°39.144 -999 -999 -999 -999
2007-06-20 07:42:28 51°9.26 2°39.141 -999 -999 -999 -999
2007-06-20 07:42:33 51°9.257 2°39.137 -999 -999 -999 -999
2007-06-20 07:42:38 51°9.254 2°39.134 -999 -999 -999 -999
2007-06-20 07:42:43 51°9.251 2°39.131 -999 -999 -999 -999
2007-06-20 07:42:48 51°9.249 2°39.127 -999 -999 -999 -999
2007-06-20 07:42:53 51°9.246 2°39.124 -999 -999 -999 -999
2007-06-20 07:42:58 51°9.244 2°39.12 -999 -999 -999 -999
2007-06-20 07:43:03 51°9.242 2°39.117 -999 -999 -999 -999
2007-06-20 07:43:08 51°9.24 2°39.114 -999 -999 -999 -999
2007-06-20 07:43:13 51°9.238 2°39.11 -999 -999 -999 -999
2007-06-20 07:43:18 51°9.236 2°39.106 -999 -999 -999 -999
2007-06-20 07:43:23 51°9.234 2°39.102 -999 -999 -999 -999
2007-06-20 07:43:28 51°9.232 2°39.099 -999 -999 -999 -999
2007-06-20 07:43:33 51°9.23 2°39.095 -999 -999 -999 -999
2007-06-20 07:43:38 51°9.228 2°39.091 -999 -999 -999 -999
2007-06-20 07:43:43 51°9.227 2°39.087 -999 -999 -999 -999
2007-06-20 07:43:48 51°9.225 2°39.082 -999 -999 -999 -999
2007-06-20 07:43:53 51°9.223 2°39.078 -999 -999 -999 -999
2007-06-20 07:43:58 51°9.221 2°39.072 -999 -999 -999 -999
2007-06-20 07:44:03 51°9.219 2°39.066 -999 -999 -999 -999
2007-06-20 07:44:08 51°9.217 2°39.06 -999 -999 -999 -999
2007-06-20 07:44:13 51°9.215 2°39.053 -999 -999 -999 -999
2007-06-20 07:44:18 51°9.213 2°39.045 -999 -999 -999 -999
2007-06-20 07:44:23 51°9.211 2°39.037 -999 -999 -999 -999
2007-06-20 07:44:28 51°9.209 2°39.028 -999 -999 -999 -999
2007-06-20 07:44:33 51°9.207 2°39.018 -999 -999 -999 -999
2007-06-20 07:44:38 51°9.206 2°39.008 -999 -999 -999 -999
2007-06-20 07:44:43 51°9.204 2°38.997 -999 -999 -999 -999
2007-06-20 07:44:48 51°9.202 2°38.987 -999 -999 -999 -999
2007-06-20 07:44:53 51°9.2 2°38.976 -999 -999 -999 -999
2007-06-20 07:44:58 51°9.199 2°38.966 -999 -999 -999 -999
2007-06-20 07:45:03 51°9.197 2°38.956 -999 -999 -999 -999
2007-06-20 07:45:08 51°9.196 2°38.946 -999 -999 -999 -999
2007-06-20 07:45:13 51°9.195 2°38.936 -999 -999 -999 -999
2007-06-20 07:45:18 51°9.193 2°38.927 -999 -999 -999 -999
2007-06-20 07:45:23 51°9.192 2°38.917 -999 -999 -999 -999
2007-06-20 07:45:28 51°9.191 2°38.908 -999 -999 -999 -999
2007-06-20 07:45:33 51°9.19 2°38.899 -999 -999 -999 -999
2007-06-20 07:45:38 51°9.189 2°38.891 -999 -999 -999 -999
2007-06-20 07:45:43 51°9.188 2°38.882 -999 -999 -999 -999
2007-06-20 07:45:48 51°9.187 2°38.874 -999 -999 -999 -999
2007-06-20 07:45:53 51°9.186 2°38.866 -999 -999 -999 -999
2007-06-20 07:45:58 51°9.185 2°38.859 -999 -999 -999 -999
2007-06-20 07:46:03 51°9.185 2°38.851 -999 -999 -999 -999
2007-06-20 07:46:08 51°9.184 2°38.844 -999 -999 -999 -999
2007-06-20 07:46:13 51°9.183 2°38.836 -999 -999 -999 -999
2007-06-20 07:46:18 51°9.183 2°38.829 -999 -999 -999 -999
2007-06-20 07:46:23 51°9.182 2°38.822 -999 -999 -999 -999
2007-06-20 07:46:28 51°9.181 2°38.815 -999 -999 -999 -999
2007-06-20 07:46:33 51°9.181 2°38.808 -999 -999 -999 -999
2007-06-20 07:46:38 51°9.18 2°38.802 -999 -999 -999 -999
2007-06-20 07:46:43 51°9.18 2°38.795 -999 -999 -999 -999
2007-06-20 07:46:48 51°9.179 2°38.789 -999 -999 -999 -999
2007-06-20 07:46:53 51°9.179 2°38.782 -999 -999 -999 -999
2007-06-20 07:46:58 51°9.178 2°38.776 -999 -999 -999 -999
2007-06-20 07:47:03 51°9.178 2°38.77 -999 -999 -999 -999
2007-06-20 07:47:08 51°9.177 2°38.764 -999 -999 -999 -999
2007-06-20 07:47:13 51°9.177 2°38.758 -999 -999 -999 -999
2007-06-20 07:47:18 51°9.176 2°38.752 -999 -999 -999 -999
2007-06-20 07:47:23 51°9.176 2°38.746 -999 -999 -999 -999
2007-06-20 07:47:28 51°9.175 2°38.74 -999 -999 -999 -999
2007-06-20 07:47:33 51°9.175 2°38.734 -999 -999 -999 -999
2007-06-20 07:47:38 51°9.174 2°38.728 -999 -999 -999 -999
2007-06-20 07:47:43 51°9.174 2°38.722 -999 -999 -999 -999
2007-06-20 07:47:48 51°9.173 2°38.715 -999 -999 -999 -999
2007-06-20 07:47:53 51°9.173 2°38.709 -999 -999 -999 -999
2007-06-20 07:47:58 51°9.172 2°38.703 -999 -999 -999 -999
2007-06-20 07:48:03 51°9.172 2°38.696 -999 -999 -999 -999
2007-06-20 07:48:08 51°9.171 2°38.69 -999 -999 -999 -999
2007-06-20 07:48:13 51°9.171 2°38.683 -999 -999 -999 -999
2007-06-20 07:48:18 51°9.17 2°38.677 -999 -999 -999 -999
2007-06-20 07:48:23 51°9.169 2°38.671 -999 -999 -999 -999
2007-06-20 07:48:28 51°9.168 2°38.665 -999 -999 -999 -999
2007-06-20 07:48:33 51°9.167 2°38.659 -999 -999 -999 -999
2007-06-20 07:48:38 51°9.166 2°38.652 -999 -999 -999 -999
2007-06-20 07:48:43 51°9.165 2°38.646 -999 -999 -999 -999
2007-06-20 07:48:48 51°9.163 2°38.64 -999 -999 -999 -999
2007-06-20 07:48:53 51°9.162 2°38.634 -999 -999 -999 -999
2007-06-20 07:48:58 51°9.161 2°38.628 -999 -999 -999 -999
2007-06-20 07:49:03 51°9.159 2°38.622 -999 -999 -999 -999
2007-06-20 07:49:08 51°9.158 2°38.615 -999 -999 -999 -999
2007-06-20 07:49:13 51°9.157 2°38.609 -999 -999 -999 -999
2007-06-20 07:49:18 51°9.155 2°38.603 -999 -999 -999 -999
2007-06-20 07:49:23 51°9.154 2°38.597 -999 -999 -999 -999
2007-06-20 07:49:28 51°9.153 2°38.591 -999 -999 -999 -999
2007-06-20 07:49:33 51°9.151 2°38.585 -999 -999 -999 -999
2007-06-20 07:49:38 51°9.15 2°38.578 -999 -999 -999 -999
2007-06-20 07:49:43 51°9.149 2°38.572 -999 -999 -999 -999
2007-06-20 07:49:48 51°9.147 2°38.566 -999 -999 -999 -999
2007-06-20 07:49:53 51°9.146 2°38.559 -999 -999 -999 -999
2007-06-20 07:49:58 51°9.144 2°38.553 -999 -999 -999 -999
2007-06-20 07:50:03 51°9.143 2°38.547 -999 -999 -999 -999
2007-06-20 07:50:08 51°9.142 2°38.54 -999 -999 -999 -999
2007-06-20 07:50:13 51°9.141 2°38.534 -999 -999 -999 -999
2007-06-20 07:50:18 51°9.139 2°38.528 -999 -999 -999 -999
2007-06-20 07:50:23 51°9.138 2°38.521 -999 -999 -999 -999
2007-06-20 07:50:28 51°9.137 2°38.514 -999 -999 -999 -999
2007-06-20 07:50:33 51°9.136 2°38.508 -999 -999 -999 -999
2007-06-20 07:50:38 51°9.134 2°38.501 -999 -999 -999 -999
2007-06-20 07:50:43 51°9.134 2°38.495 -999 -999 -999 -999
2007-06-20 07:50:48 51°9.132 2°38.488 -999 -999 -999 -999
2007-06-20 07:50:53 51°9.131 2°38.482 -999 -999 -999 -999
2007-06-20 07:50:58 51°9.13 2°38.475 -999 -999 -999 -999
2007-06-20 07:51:03 51°9.129 2°38.468 -999 -999 -999 -999
2007-06-20 07:51:08 51°9.128 2°38.462 -999 -999 -999 -999
2007-06-20 07:51:13 51°9.127 2°38.455 -999 -999 -999 -999
2007-06-20 07:51:18 51°9.127 2°38.448 -999 -999 -999 -999
2007-06-20 07:51:23 51°9.126 2°38.441 -999 -999 -999 -999
2007-06-20 07:51:28 51°9.125 2°38.434 -999 -999 -999 -999
2007-06-20 07:51:33 51°9.124 2°38.428 -999 -999 -999 -999
2007-06-20 07:51:38 51°9.124 2°38.421 -999 -999 -999 -999
2007-06-20 07:51:43 51°9.123 2°38.414 -999 -999 -999 -999
2007-06-20 07:51:48 51°9.123 2°38.407 -999 -999 -999 -999
2007-06-20 07:51:53 51°9.122 2°38.4 -999 -999 -999 -999
2007-06-20 07:51:58 51°9.122 2°38.393 -999 -999 -999 -999
2007-06-20 07:52:03 51°9.121 2°38.386 -999 -999 -999 -999
2007-06-20 07:52:08 51°9.121 2°38.379 -999 -999 -999 -999
2007-06-20 07:52:13 51°9.12 2°38.373 -999 -999 -999 -999
2007-06-20 07:52:18 51°9.12 2°38.366 -999 -999 -999 -999
2007-06-20 07:52:23 51°9.12 2°38.359 -999 -999 -999 -999
2007-06-20 07:52:28 51°9.119 2°38.352 -999 -999 -999 -999
2007-06-20 07:52:33 51°9.119 2°38.345 -999 -999 -999 -999
2007-06-20 07:52:38 51°9.118 2°38.338 -999 -999 -999 -999
2007-06-20 07:52:43 51°9.118 2°38.331 -999 -999 -999 -999
2007-06-20 07:52:48 51°9.117 2°38.324 -999 -999 -999 -999
2007-06-20 07:52:53 51°9.117 2°38.317 -999 -999 -999 -999
2007-06-20 07:52:58 51°9.117 2°38.31 -999 -999 -999 -999
2007-06-20 07:53:03 51°9.116 2°38.304 -999 -999 -999 -999
2007-06-20 07:53:08 51°9.116 2°38.297 -999 -999 -999 -999
2007-06-20 07:53:13 51°9.115 2°38.29 -999 -999 -999 -999
2007-06-20 07:53:18 51°9.115 2°38.284 -999 -999 -999 -999
2007-06-20 07:53:23 51°9.114 2°38.277 -999 -999 -999 -999
2007-06-20 07:53:28 51°9.113 2°38.271 -999 -999 -999 -999
2007-06-20 07:53:33 51°9.112 2°38.264 -999 -999 -999 -999
2007-06-20 07:53:38 51°9.111 2°38.258 -999 -999 -999 -999
2007-06-20 07:53:43 51°9.11 2°38.251 -999 -999 -999 -999
2007-06-20 07:53:48 51°9.109 2°38.245 -999 -999 -999 -999
2007-06-20 07:53:53 51°9.108 2°38.238 -999 -999 -999 -999
2007-06-20 07:53:58 51°9.107 2°38.232 -999 -999 -999 -999
2007-06-20 07:54:03 51°9.106 2°38.226 -999 -999 -999 -999
2007-06-20 07:54:08 51°9.104 2°38.219 -999 -999 -999 -999
2007-06-20 07:54:13 51°9.103 2°38.213 -999 -999 -999 -999
2007-06-20 07:54:18 51°9.102 2°38.207 -999 -999 -999 -999
2007-06-20 07:54:23 51°9.1 2°38.2 -999 -999 -999 -999
2007-06-20 07:54:28 51°9.099 2°38.194 -999 -999 -999 -999
2007-06-20 07:54:33 51°9.097 2°38.188 -999 -999 -999 -999
2007-06-20 07:54:38 51°9.096 2°38.181 -999 -999 -999 -999
2007-06-20 07:54:43 51°9.095 2°38.175 -999 -999 -999 -999
2007-06-20 07:54:48 51°9.093 2°38.169 -999 -999 -999 -999
2007-06-20 07:54:53 51°9.091 2°38.163 -999 -999 -999 -999
2007-06-20 07:54:58 51°9.09 2°38.156 -999 -999 -999 -999
2007-06-20 07:55:03 51°9.088 2°38.15 -999 -999 -999 -999
2007-06-20 07:55:08 51°9.087 2°38.144 -999 -999 -999 -999
2007-06-20 07:55:13 51°9.085 2°38.137 -999 -999 -999 -999
2007-06-20 07:55:18 51°9.084 2°38.131 -999 -999 -999 -999
2007-06-20 07:55:23 51°9.082 2°38.125 -999 -999 -999 -999
2007-06-20 07:55:28 51°9.08 2°38.118 -999 -999 -999 -999
2007-06-20 07:55:33 51°9.079 2°38.112 -999 -999 -999 -999
2007-06-20 07:55:38 51°9.077 2°38.106 -999 -999 -999 -999
2007-06-20 07:55:43 51°9.075 2°38.1 -999 -999 -999 -999
2007-06-20 07:55:48 51°9.074 2°38.094 -999 -999 -999 -999
2007-06-20 07:55:53 51°9.072 2°38.088 -999 -999 -999 -999
2007-06-20 07:55:58 51°9.071 2°38.081 -999 -999 -999 -999
2007-06-20 07:56:03 51°9.069 2°38.075 -999 -999 -999 -999
2007-06-20 07:56:08 51°9.067 2°38.069 -999 -999 -999 -999
2007-06-20 07:56:13 51°9.066 2°38.063 -999 -999 -999 -999
2007-06-20 07:56:18 51°9.064 2°38.057 -999 -999 -999 -999
2007-06-20 07:56:23 51°9.063 2°38.05 -999 -999 -999 -999
2007-06-20 07:56:28 51°9.061 2°38.044 -999 -999 -999 -999
2007-06-20 07:56:33 51°9.06 2°38.038 -999 -999 -999 -999
2007-06-20 07:56:38 51°9.058 2°38.032 -999 -999 -999 -999
2007-06-20 07:56:43 51°9.057 2°38.025 -999 -999 -999 -999
2007-06-20 07:56:48 51°9.056 2°38.019 -999 -999 -999 -999
2007-06-20 07:56:53 51°9.055 2°38.012 -999 -999 -999 -999
2007-06-20 07:56:58 51°9.054 2°38.006 -999 -999 -999 -999
2007-06-20 07:57:03 51°9.052 2°37.999 -999 -999 -999 -999
2007-06-20 07:57:08 51°9.051 2°37.993 -999 -999 -999 -999
2007-06-20 07:57:13 51°9.05 2°37.986 -999 -999 -999 -999
2007-06-20 07:57:18 51°9.049 2°37.98 -999 -999 -999 -999
2007-06-20 07:57:23 51°9.048 2°37.973 -999 -999 -999 -999
2007-06-20 07:57:28 51°9.047 2°37.967 -999 -999 -999 -999
2007-06-20 07:57:33 51°9.047 2°37.96 -999 -999 -999 -999
2007-06-20 07:57:38 51°9.046 2°37.953 -999 -999 -999 -999
2007-06-20 07:57:43 51°9.045 2°37.947 -999 -999 -999 -999
2007-06-20 07:57:48 51°9.045 2°37.94 -999 -999 -999 -999
2007-06-20 07:57:53 51°9.045 2°37.934 -999 -999 -999 -999
2007-06-20 07:57:58 51°9.045 2°37.927 -999 -999 -999 -999
2007-06-20 07:58:03 51°9.045 2°37.92 -999 -999 -999 -999
2007-06-20 07:58:08 51°9.045 2°37.914 -999 -999 -999 -999
2007-06-20 07:58:13 51°9.045 2°37.907 -999 -999 -999 -999
2007-06-20 07:58:18 51°9.045 2°37.9 -999 -999 -999 -999
2007-06-20 07:58:23 51°9.045 2°37.894 -999 -999 -999 -999
2007-06-20 07:58:28 51°9.045 2°37.887 -999 -999 -999 -999
2007-06-20 07:58:33 51°9.045 2°37.88 -999 -999 -999 -999
2007-06-20 07:58:38 51°9.046 2°37.874 -999 -999 -999 -999
2007-06-20 07:58:43 51°9.046 2°37.867 -999 -999 -999 -999
2007-06-20 07:58:48 51°9.046 2°37.86 -999 -999 -999 -999
2007-06-20 07:58:53 51°9.047 2°37.854 -999 -999 -999 -999
2007-06-20 07:58:58 51°9.047 2°37.847 -999 -999 -999 -999
2007-06-20 07:59:03 51°9.047 2°37.84 -999 -999 -999 -999
2007-06-20 07:59:08 51°9.047 2°37.834 -999 -999 -999 -999
2007-06-20 07:59:13 51°9.047 2°37.827 -999 -999 -999 -999
2007-06-20 07:59:18 51°9.047 2°37.821 -999 -999 -999 -999
2007-06-20 07:59:23 51°9.047 2°37.814 -999 -999 -999 -999
2007-06-20 07:59:28 51°9.047 2°37.808 -999 -999 -999 -999